Time,TemperatureF,DewpointF,PressureIn,WindDirection,WindDirectionDegrees,WindSpeedMPH,WindSpeedGustMPH,Humidity,HourlyPrecipIn,Conditions,Clouds,dailyrainin,SoftwareType,DateUTC
2013-02-24 00:01:00,39.0,38.0,29.80,South,181,3.0,6.0,98,0.00,,,0.05,,2013-02-24 05:01:00,
2013-02-24 00:11:00,39.0,38.0,29.80,South,181,3.0,6.0,98,0.00,,,0.05,,2013-02-24 05:11:00,
2013-02-24 00:22:00,39.0,38.0,29.79,South,181,4.0,8.0,98,0.00,,,0.05,,2013-02-24 05:22:00,
2013-02-24 00:32:00,39.0,38.0,29.78,SSW,204,5.0,9.0,98,0.00,,,0.05,,2013-02-24 05:32:00,
2013-02-24 00:42:00,39.0,38.0,29.78,SSW,204,5.0,9.0,98,0.00,,,0.05,,2013-02-24 05:42:00,
2013-02-24 00:52:00,38.0,37.0,29.78,SSW,212,5.0,11.0,98,0.00,,,0.05,,2013-02-24 05:52:00,
2013-02-24 01:02:00,38.0,37.0,29.78,SW,236,6.0,10.0,98,0.00,,,0.05,,2013-02-24 06:02:00,
2013-02-24 01:11:00,38.0,37.0,29.78,SW,236,6.0,10.0,98,0.00,,,0.05,,2013-02-24 06:11:00,
2013-02-24 01:21:00,38.0,37.0,29.77,SW,218,3.0,7.0,98,0.00,,,0.05,,2013-02-24 06:21:00,
2013-02-24 01:32:00,38.0,37.0,29.78,SSW,204,0.0,6.0,98,0.00,,,0.05,,2013-02-24 06:32:00,
2013-02-24 01:42:00,38.0,37.0,29.78,SSW,204,0.0,6.0,98,0.00,,,0.05,,2013-02-24 06:42:00,
2013-02-24 01:52:00,38.0,37.0,29.79,SSE,152,2.0,6.0,98,0.00,,,0.05,,2013-02-24 06:52:00,
2013-02-24 02:01:00,38.0,37.0,29.80,SSE,159,1.0,2.0,98,0.00,,,0.05,,2013-02-24 07:01:00,
2013-02-24 02:12:00,38.0,37.0,29.80,SSE,159,1.0,2.0,98,0.00,,,0.05,,2013-02-24 07:12:00,
2013-02-24 02:22:00,38.0,37.0,29.80,SSE,162,0.0,3.0,98,0.00,,,0.05,,2013-02-24 07:22:00,
2013-02-24 02:32:00,38.0,37.0,29.80,SSE,162,0.0,3.0,98,0.00,,,0.05,,2013-02-24 07:32:00,
2013-02-24 02:42:00,38.0,37.0,29.80,SSE,162,0.0,3.0,98,0.00,,,0.05,,2013-02-24 07:42:00,
2013-02-24 02:52:00,38.0,37.0,29.80,WSW,250,0.0,1.0,98,0.00,,,0.05,,2013-02-24 07:52:00,
2013-02-24 03:01:00,38.0,37.0,29.80,WSW,250,0.0,1.0,98,0.00,,,0.05,,2013-02-24 08:01:00,
2013-02-24 03:11:00,38.0,37.0,29.80,WSW,250,0.0,1.0,98,0.00,,,0.05,,2013-02-24 08:11:00,
2013-02-24 03:22:00,38.0,37.0,29.80,SW,217,0.0,1.0,98,0.00,,,0.05,,2013-02-24 08:22:00,
2013-02-24 03:32:00,38.0,37.0,29.79,SSE,151,1.0,2.0,98,0.00,,,0.05,,2013-02-24 08:32:00,
2013-02-24 03:42:00,38.0,37.0,29.79,SSE,151,1.0,2.0,98,0.00,,,0.05,,2013-02-24 08:42:00,
2013-02-24 03:53:00,38.0,37.0,29.76,SW,217,2.0,4.0,98,0.00,,,0.05,,2013-02-24 08:53:00,
2013-02-24 04:02:00,38.0,37.0,29.76,SW,217,2.0,4.0,98,0.00,,,0.05,,2013-02-24 09:02:00,
2013-02-24 04:11:00,38.0,37.0,29.76,SW,217,2.0,4.0,98,0.00,,,0.05,,2013-02-24 09:11:00,
2013-02-24 04:21:00,37.0,36.0,29.76,South,177,0.0,4.0,98,0.00,,,0.05,,2013-02-24 09:21:00,
2013-02-24 04:32:00,37.0,37.0,29.75,South,191,0.0,2.0,99,0.00,,,0.05,,2013-02-24 09:32:00,
2013-02-24 04:42:00,37.0,37.0,29.75,South,191,0.0,2.0,99,0.00,,,0.05,,2013-02-24 09:42:00,
2013-02-24 04:51:00,37.0,37.0,29.75,South,174,0.0,1.0,99,0.00,,,0.05,,2013-02-24 09:51:00,
2013-02-24 05:01:00,37.0,37.0,29.75,ESE,120,0.0,2.0,99,0.00,,,0.05,,2013-02-24 10:01:00,
2013-02-24 05:11:00,37.0,37.0,29.75,ESE,120,0.0,2.0,99,0.00,,,0.05,,2013-02-24 10:11:00,
2013-02-24 05:22:00,37.0,37.0,29.75,South,169,0.0,2.0,99,0.00,,,0.05,,2013-02-24 10:22:00,
2013-02-24 05:32:00,37.0,37.0,29.77,SE,146,1.0,2.0,99,0.00,,,0.05,,2013-02-24 10:32:00,
2013-02-24 05:42:00,37.0,37.0,29.77,SE,146,1.0,2.0,99,0.00,,,0.05,,2013-02-24 10:42:00,
2013-02-24 05:52:00,37.0,37.0,29.77,SE,127,2.0,3.0,99,0.00,,,0.05,,2013-02-24 10:52:00,
2013-02-24 06:01:00,37.0,37.0,29.78,SE,132,0.0,2.0,99,0.00,,,0.04,,2013-02-24 11:01:00,
2013-02-24 06:11:00,37.0,37.0,29.78,SE,132,0.0,2.0,99,0.00,,,0.04,,2013-02-24 11:11:00,
2013-02-24 06:22:00,37.0,36.0,29.78,ESE,110,0.0,1.0,98,0.00,,,0.04,,2013-02-24 11:22:00,
2013-02-24 06:32:00,37.0,36.0,29.78,SE,133,0.0,1.0,98,0.00,,,0.04,,2013-02-24 11:32:00,
2013-02-24 06:42:00,37.0,36.0,29.78,SE,133,0.0,1.0,98,0.00,,,0.04,,2013-02-24 11:42:00,
2013-02-24 06:52:00,37.0,36.0,29.78,SE,125,0.0,0.0,98,0.00,,,0.04,,2013-02-24 11:52:00,
2013-02-24 07:02:00,37.0,36.0,29.78,SE,135,0.0,0.0,98,0.00,,,0.04,,2013-02-24 12:02:00,
2013-02-24 07:11:00,37.0,36.0,29.78,SE,135,0.0,0.0,98,0.00,,,0.04,,2013-02-24 12:11:00,
2013-02-24 07:22:00,37.0,36.0,29.79,SE,131,1.0,3.0,98,0.00,,,0.04,,2013-02-24 12:22:00,
2013-02-24 07:32:00,38.0,38.0,29.79,SE,145,3.0,8.0,99,0.00,,,0.04,,2013-02-24 12:32:00,
2013-02-24 07:46:00,38.0,38.0,29.79,SE,145,3.0,8.0,99,0.00,,,0.04,,2013-02-24 12:46:00,
2013-02-24 07:55:00,38.0,37.0,29.80,SE,143,3.0,10.0,97,0.00,,,0.04,,2013-02-24 12:55:00,
2013-02-24 08:15:00,37.0,36.0,29.79,SE,143,4.0,8.0,95,0.00,,,0.04,,2013-02-24 13:15:00,
2013-02-24 08:27:00,37.0,35.0,29.80,SSE,151,3.0,7.0,94,0.00,,,0.04,,2013-02-24 13:27:00,
2013-02-24 08:45:00,38.0,36.0,29.79,SSE,156,3.0,6.0,93,0.00,,,0.04,,2013-02-24 13:45:00,
2013-02-24 08:53:00,39.0,36.0,29.79,SE,132,5.0,8.0,90,0.00,,,0.04,,2013-02-24 13:53:00,
2013-02-24 09:05:00,39.0,36.0,29.79,SSE,153,3.0,8.0,88,0.00,,,0.03,,2013-02-24 14:05:00,
2013-02-24 09:14:00,39.0,36.0,29.79,SSE,153,3.0,8.0,88,0.00,,,0.03,,2013-02-24 14:14:00,
2013-02-24 09:25:00,40.0,36.0,29.80,SE,124,9.0,12.0,85,0.00,,,0.03,,2013-02-24 14:25:00,
2013-02-24 09:34:00,40.0,36.0,29.80,ESE,113,8.0,18.0,85,0.00,,,0.03,,2013-02-24 14:34:00,
2013-02-24 09:44:00,40.0,36.0,29.80,ESE,113,8.0,18.0,85,0.00,,,0.03,,2013-02-24 14:44:00,
2013-02-24 09:53:00,40.0,35.0,29.81,SE,124,8.0,15.0,83,0.00,,,0.03,,2013-02-24 14:53:00,
2013-02-24 10:04:00,40.0,35.0,29.81,ESE,120,9.0,17.0,82,0.00,,,0.03,,2013-02-24 15:04:00,
2013-02-24 10:14:00,40.0,35.0,29.81,ESE,120,9.0,17.0,82,0.00,,,0.03,,2013-02-24 15:14:00,
2013-02-24 10:24:00,39.0,33.0,29.82,SE,136,7.0,16.0,80,0.00,,,0.03,,2013-02-24 15:24:00,
2013-02-24 10:32:00,39.0,33.0,29.82,SSE,150,8.0,16.0,79,0.00,,,0.03,,2013-02-24 15:32:00,
2013-02-24 10:42:00,39.0,33.0,29.82,SSE,150,8.0,16.0,79,0.00,,,0.03,,2013-02-24 15:42:00,
2013-02-24 10:52:00,39.0,33.0,29.82,ESE,117,7.0,14.0,79,0.00,,,0.03,,2013-02-24 15:52:00,
2013-02-24 11:02:00,39.0,32.0,29.82,East,101,11.0,18.0,75,0.00,,,0.02,,2013-02-24 16:02:00,
2013-02-24 11:12:00,39.0,32.0,29.82,East,101,11.0,18.0,75,0.00,,,0.02,,2013-02-24 16:12:00,
2013-02-24 11:22:00,39.0,32.0,29.82,SE,139,9.0,16.0,75,0.00,,,0.02,,2013-02-24 16:22:00,
2013-02-24 11:32:00,39.0,32.0,29.83,ESE,117,8.0,21.0,75,0.00,,,0.02,,2013-02-24 16:32:00,
2013-02-24 11:42:00,39.0,32.0,29.83,ESE,117,8.0,21.0,75,0.00,,,0.02,,2013-02-24 16:42:00,
2013-02-24 11:52:00,39.0,32.0,29.83,SE,128,9.0,16.0,75,0.00,,,0.02,,2013-02-24 16:52:00,
2013-02-24 12:01:00,39.0,32.0,29.83,SE,134,8.0,16.0,75,0.00,,,0.01,,2013-02-24 17:01:00,
2013-02-24 12:11:00,39.0,32.0,29.83,SE,134,8.0,16.0,75,0.00,,,0.01,,2013-02-24 17:11:00,
2013-02-24 12:22:00,39.0,31.0,29.83,SE,138,4.0,10.0,74,0.00,,,0.01,,2013-02-24 17:22:00,
2013-02-24 12:32:00,40.0,30.0,29.82,ESE,120,11.0,18.0,67,0.00,,,0.01,,2013-02-24 17:32:00,
2013-02-24 12:42:00,40.0,30.0,29.82,ESE,120,11.0,18.0,67,0.00,,,0.01,,2013-02-24 17:42:00,
2013-02-24 12:52:00,40.0,29.0,29.82,SE,141,10.0,17.0,65,0.00,,,0.01,,2013-02-24 17:52:00,
2013-02-24 13:02:00,40.0,28.0,29.83,SE,132,14.0,21.0,62,0.00,,,0.01,,2013-02-24 18:02:00,
2013-02-24 13:11:00,40.0,28.0,29.83,SE,132,14.0,21.0,62,0.00,,,0.01,,2013-02-24 18:11:00,
2013-02-24 13:22:00,41.0,29.0,29.82,East,91,18.0,29.0,62,0.00,,,0.01,,2013-02-24 18:22:00,
2013-02-24 13:32:00,40.0,27.0,29.82,ESE,120,17.0,25.0,60,0.00,,,0.01,,2013-02-24 18:32:00,
2013-02-24 13:42:00,40.0,27.0,29.82,ESE,120,17.0,25.0,60,0.00,,,0.01,,2013-02-24 18:42:00,
2013-02-24 13:52:00,39.0,26.0,29.82,ESE,120,16.0,24.0,60,0.00,,,0.01,,2013-02-24 18:52:00,
2013-02-24 14:01:00,38.0,26.0,29.83,ESE,120,12.0,25.0,61,0.00,,,0.01,,2013-02-24 19:01:00,
2013-02-24 14:12:00,38.0,26.0,29.83,ESE,120,12.0,25.0,61,0.00,,,0.01,,2013-02-24 19:12:00,
2013-02-24 14:22:00,39.0,27.0,29.83,SE,127,12.0,25.0,61,0.00,,,0.01,,2013-02-24 19:22:00,
2013-02-24 14:32:00,38.0,25.0,29.83,SE,134,16.0,23.0,60,0.00,,,0.01,,2013-02-24 19:32:00,
2013-02-24 14:42:00,38.0,25.0,29.83,SE,134,16.0,23.0,60,0.00,,,0.01,,2013-02-24 19:42:00,
2013-02-24 14:52:00,39.0,27.0,29.83,SE,124,9.0,22.0,61,0.00,,,0.01,,2013-02-24 19:52:00,
2013-02-24 15:02:00,38.0,25.0,29.84,ESE,116,13.0,19.0,60,0.00,,,0.00,,2013-02-24 20:02:00,
2013-02-24 15:11:00,38.0,25.0,29.84,ESE,116,13.0,19.0,60,0.00,,,0.00,,2013-02-24 20:11:00,
2013-02-24 15:22:00,38.0,26.0,29.85,SE,124,15.0,22.0,61,0.00,,,0.00,,2013-02-24 20:22:00,
2013-02-24 15:32:00,37.0,26.0,29.85,East,97,15.0,24.0,63,0.00,,,0.00,,2013-02-24 20:32:00,
2013-02-24 15:42:00,37.0,26.0,29.85,East,97,15.0,24.0,63,0.00,,,0.00,,2013-02-24 20:42:00,
2013-02-24 15:52:00,38.0,26.0,29.86,ESE,108,17.0,29.0,62,0.00,,,0.00,,2013-02-24 20:52:00,
2013-02-24 16:02:00,36.0,24.0,29.87,East,94,12.0,26.0,62,0.00,,,0.00,,2013-02-24 21:02:00,
2013-02-24 16:11:00,36.0,24.0,29.87,East,94,12.0,26.0,62,0.00,,,0.00,,2013-02-24 21:11:00,
2013-02-24 16:21:00,37.0,25.0,29.87,SE,129,13.0,18.0,62,0.00,,,0.00,,2013-02-24 21:21:00,
2013-02-24 16:32:00,36.0,24.0,29.88,ESE,108,11.0,23.0,62,0.00,,,0.00,,2013-02-24 21:32:00,
2013-02-24 16:42:00,36.0,24.0,29.88,ESE,108,11.0,23.0,62,0.00,,,0.00,,2013-02-24 21:42:00,
2013-02-24 16:52:00,37.0,25.0,29.88,SE,124,10.0,18.0,61,0.00,,,0.00,,2013-02-24 21:52:00,
2013-02-24 17:01:00,37.0,24.0,29.89,ESE,103,13.0,19.0,59,0.00,,,0.00,,2013-02-24 22:01:00,
2013-02-24 17:11:00,37.0,24.0,29.89,ESE,103,13.0,19.0,59,0.00,,,0.00,,2013-02-24 22:11:00,
2013-02-24 17:22:00,36.0,23.0,29.90,ESE,122,15.0,23.0,58,0.00,,,0.00,,2013-02-24 22:22:00,
2013-02-24 17:32:00,36.0,23.0,29.90,SE,135,12.0,20.0,59,0.00,,,0.00,,2013-02-24 22:32:00,
2013-02-24 17:42:00,36.0,23.0,29.90,SE,135,12.0,20.0,59,0.00,,,0.00,,2013-02-24 22:42:00,
2013-02-24 17:52:00,35.0,23.0,29.91,SE,127,7.0,19.0,60,0.00,,,0.00,,2013-02-24 22:52:00,
2013-02-24 18:02:00,35.0,23.0,29.92,SE,134,4.0,14.0,60,0.00,,,0.00,,2013-02-24 23:02:00,
2013-02-24 18:11:00,35.0,23.0,29.92,SE,134,4.0,14.0,60,0.00,,,0.00,,2013-02-24 23:11:00,
2013-02-24 18:21:00,34.0,22.0,29.92,SE,134,9.0,16.0,61,0.00,,,0.00,,2013-02-24 23:21:00,
2013-02-24 18:32:00,34.0,21.0,29.94,SE,139,11.0,16.0,59,0.00,,,0.00,,2013-02-24 23:32:00,
2013-02-24 18:42:00,34.0,21.0,29.94,SE,139,11.0,16.0,59,0.00,,,0.00,,2013-02-24 23:42:00,
2013-02-24 18:52:00,34.0,22.0,29.94,ESE,120,4.0,11.0,62,0.00,,,0.00,,2013-02-24 23:52:00,
2013-02-24 19:01:00,34.0,22.0,29.94,ESE,120,4.0,11.0,62,0.00,,,0.00,,2013-02-25 00:01:00,
2013-02-24 19:11:00,34.0,22.0,29.94,ESE,120,4.0,11.0,62,0.00,,,0.00,,2013-02-25 00:11:00,
2013-02-24 19:21:00,34.0,22.0,29.95,East,93,7.0,15.0,60,0.00,,,0.00,,2013-02-25 00:21:00,
2013-02-24 19:32:00,33.0,23.0,29.96,ESE,107,3.0,7.0,65,0.00,,,0.00,,2013-02-25 00:32:00,
2013-02-24 19:42:00,33.0,23.0,29.96,ESE,107,3.0,7.0,65,0.00,,,0.00,,2013-02-25 00:42:00,
2013-02-24 19:52:00,33.0,23.0,29.96,ESE,107,3.0,7.0,65,0.00,,,0.00,,2013-02-25 00:52:00,
2013-02-24 20:01:00,32.0,22.0,29.97,ESE,111,4.0,10.0,65,0.00,,,0.00,,2013-02-25 01:01:00,
2013-02-24 20:11:00,32.0,22.0,29.97,ESE,111,4.0,10.0,65,0.00,,,0.00,,2013-02-25 01:11:00,
2013-02-24 20:21:00,32.0,21.0,29.97,ESE,119,2.0,6.0,64,0.00,,,0.00,,2013-02-25 01:21:00,
2013-02-24 20:32:00,32.0,21.0,29.98,SE,131,5.0,13.0,63,0.00,,,0.00,,2013-02-25 01:32:00,
2013-02-24 20:42:00,32.0,21.0,29.98,SE,131,5.0,13.0,63,0.00,,,0.00,,2013-02-25 01:42:00,
2013-02-24 20:52:00,32.0,20.0,29.99,ESE,121,5.0,8.0,62,0.00,,,0.00,,2013-02-25 01:52:00,
2013-02-24 21:01:00,32.0,20.0,29.99,SE,127,8.0,14.0,62,0.00,,,0.00,,2013-02-25 02:01:00,
2013-02-24 21:11:00,32.0,20.0,29.99,SE,127,8.0,14.0,62,0.00,,,0.00,,2013-02-25 02:11:00,
2013-02-24 21:21:00,32.0,20.0,29.99,SE,131,7.0,14.0,62,0.00,,,0.00,,2013-02-25 02:21:00,
2013-02-24 21:32:00,32.0,21.0,30.00,ESE,107,2.0,8.0,64,0.00,,,0.00,,2013-02-25 02:32:00,
2013-02-24 21:42:00,32.0,21.0,30.00,ESE,107,2.0,8.0,64,0.00,,,0.00,,2013-02-25 02:42:00,
2013-02-24 21:52:00,31.0,21.0,30.01,East,82,4.0,7.0,65,0.00,,,0.00,,2013-02-25 02:52:00,
2013-02-24 22:02:00,32.0,22.0,30.01,ESE,103,6.0,11.0,65,0.00,,,0.00,,2013-02-25 03:02:00,
2013-02-24 22:11:00,32.0,22.0,30.01,ESE,103,6.0,11.0,65,0.00,,,0.00,,2013-02-25 03:11:00,
2013-02-24 22:21:00,31.0,21.0,30.01,ESE,111,4.0,9.0,66,0.00,,,0.00,,2013-02-25 03:21:00,
2013-02-24 22:32:00,31.0,21.0,30.01,ESE,123,4.0,8.0,67,0.00,,,0.00,,2013-02-25 03:32:00,
2013-02-24 22:42:00,31.0,21.0,30.01,ESE,123,4.0,8.0,67,0.00,,,0.00,,2013-02-25 03:42:00,
2013-02-24 22:52:00,31.0,21.0,30.02,SE,124,5.0,10.0,67,0.00,,,0.00,,2013-02-25 03:52:00,
2013-02-24 23:02:00,32.0,22.0,30.01,ESE,114,8.0,15.0,65,0.00,,,0.00,,2013-02-25 04:02:00,
2013-02-24 23:11:00,32.0,22.0,30.01,ESE,114,8.0,15.0,65,0.00,,,0.00,,2013-02-25 04:11:00,
2013-02-24 23:21:00,31.0,21.0,30.01,SE,133,7.0,13.0,65,0.00,,,0.00,,2013-02-25 04:21:00,
2013-02-24 23:32:00,31.0,21.0,30.02,SE,131,6.0,9.0,66,0.00,,,0.00,,2013-02-25 04:32:00,
2013-02-24 23:42:00,31.0,21.0,30.02,SE,131,6.0,9.0,66,0.00,,,0.00,,2013-02-25 04:42:00,
2013-02-24 23:52:00,31.0,21.0,30.03,ESE,122,8.0,14.0,65,0.00,,,0.00,,2013-02-25 04:52:00,